| time (UTC) | temp F | wind direction | speed MPH | gust MPH | rain 1hr in | rain 24hr in | rain mn in | humidity % | barometer mb |
| 20260504150103 | 72 | 270 | 4.0 | 12.0 | 0.00 | 0.00 | 0.00 | 60 | 1012.2 |
| 20260504081528 | 61 | 222 | 2.0 | 7.0 | 0.00 | 0.00 | 0.00 | 64 | 1012.1 |
| 20260504080136 | 61 | 210 | 2.0 | 8.0 | 0.00 | 0.00 | 0.00 | 63 | 1012.2 |
| 20260504044623 | 60 | 189 | 0.0 | 4.0 | 0.00 | 0.00 | 0.00 | 62 | 1013.6 |
| 20260504043048 | 60 | 233 | 0.0 | 3.0 | 0.00 | 0.00 | 0.00 | 62 | 1013.6 |
| 20260504041635 | 60 | 175 | 0.0 | 4.0 | 0.00 | 0.00 | 0.00 | 62 | 1013.7 |
| 20260504040132 | 60 | 197 | 0.0 | 2.0 | 0.00 | 0.00 | 0.00 | 61 | 1013.8 |
| 20260504034537 | 61 | 179 | 0.0 | 0.0 | 0.00 | 0.00 | 0.00 | 59 | 1014.0 |
| 20260504033001 | 61 | 203 | 1.0 | 4.0 | 0.00 | 0.00 | 0.00 | 58 | 1014.0 |
| 20260504031559 | 62 | 183 | 0.0 | 3.0 | 0.00 | 0.00 | 0.00 | 58 | 1014.1 |
| 20260504030009 | 62 | 198 | 0.0 | 4.0 | 0.00 | 0.00 | 0.00 | 56 | 1014.1 |
| 20260504024555 | 63 | 193 | 1.0 | 3.0 | 0.00 | 0.00 | 0.00 | 56 | 1014.2 |
| 20260504023010 | 63 | 168 | 1.0 | 4.0 | 0.00 | 0.00 | 0.00 | 54 | 1014.1 |
| 20260504021554 | 64 | 201 | 1.0 | 6.0 | 0.00 | 0.00 | 0.00 | 53 | 1013.9 |
| 20260504020038 | 64 | 213 | 1.0 | 6.0 | 0.00 | 0.00 | 0.00 | 53 | 1013.7 |
| 20260504014604 | 64 | 183 | 1.0 | 4.0 | 0.00 | 0.00 | 0.00 | 53 | 1013.8 |
| 20260504013048 | 64 | 168 | 0.0 | 3.0 | 0.00 | 0.00 | 0.00 | 52 | 1013.8 |
| 20260504011505 | 65 | 199 | 0.0 | 2.0 | 0.00 | 0.00 | 0.00 | 51 | 1013.8 |
| 20260504010125 | 66 | 182 | 0.0 | 1.0 | 0.00 | 0.00 | 0.00 | 49 | 1013.9 |
| 20260504004546 | 67 | 187 | 0.0 | 3.0 | 0.00 | 0.00 | 0.00 | 47 | 1013.9 |
| 20260504003007 | 68 | 184 | 0.0 | 1.0 | 0.00 | 0.00 | 0.00 | 45 | 1014.0 |
| 20260504001556 | 69 | 210 | 1.0 | 4.0 | 0.00 | 0.00 | 0.00 | 42 | 1014.1 |
| 20260504000039 | 70 | 211 | 2.0 | 8.0 | 0.00 | 0.00 | 0.00 | 39 | 1014.1 |
| 20260503234629 | 70 | 174 | 3.0 | 9.0 | 0.00 | 0.00 | 0.00 | 39 | 1014.2 |
| 20260503233049 | 71 | 27 | 2.0 | 7.0 | 0.00 | 0.00 | 0.00 | 38 | 1014.3 |
| 20260503231616 | 72 | 312 | 3.0 | 8.0 | 0.00 | 0.00 | 0.00 | 38 | 1014.4 |
| 20260503230056 | 73 | 211 | 3.0 | 11.0 | 0.00 | 0.00 | 0.00 | 37 | 1014.5 |
| 20260503224541 | 73 | 259 | 3.0 | 8.0 | 0.00 | 0.00 | 0.00 | 38 | 1014.8 |
| 20260503223003 | 73 | 203 | 4.0 | 8.0 | 0.00 | 0.00 | 0.00 | 37 | 1014.5 |
| 20260503221559 | 74 | 221 | 2.0 | 11.0 | 0.00 | 0.00 | 0.00 | 38 | 1014.8 |
| 20260503220034 | 74 | 265 | 3.0 | 8.0 | 0.00 | 0.00 | 0.00 | 40 | 1015.2 |
| 20260503214603 | 73 | 282 | 3.0 | 9.0 | 0.00 | 0.00 | 0.00 | 38 | 1015.3 |
| 20260503213020 | 73 | 186 | 4.0 | 10.0 | 0.00 | 0.00 | 0.00 | 39 | 1015.7 |
| 20260503211608 | 73 | 192 | 1.0 | 6.0 | 0.00 | 0.00 | 0.00 | 39 | 1015.9 |
| 20260503210055 | 72 | 339 | 2.0 | 10.0 | 0.00 | 0.00 | 0.00 | 42 | 1016.3 |
| 20260503204515 | 72 | 172 | 5.0 | 12.0 | 0.00 | 0.00 | 0.00 | 40 | 1016.8 |
| 20260503203103 | 71 | 229 | 3.0 | 10.0 | 0.00 | 0.00 | 0.00 | 43 | 1017.0 |
| 20260503201548 | 73 | 220 | 2.0 | 10.0 | 0.00 | 0.00 | 0.00 | 41 | 1017.3 |
| 20260503200113 | 73 | 246 | 4.0 | 10.0 | 0.00 | 0.00 | 0.00 | 37 | 1017.7 |
| 20260503194548 | 71 | 287 | 3.0 | 10.0 | 0.00 | 0.00 | 0.00 | 39 | 1018.1 |
| 20260503193054 | 72 | 232 | 6.0 | 15.0 | 0.00 | 0.00 | 0.00 | 40 | 1018.4 |
| 20260503191511 | 71 | 289 | 1.0 | 11.0 | 0.00 | 0.00 | 0.00 | 40 | 1018.5 |
| 20260503190108 | 71 | 188 | 3.0 | 10.0 | 0.00 | 0.00 | 0.00 | 40 | 1018.7 |
| 20260503184632 | 69 | 312 | 2.0 | 9.0 | 0.00 | 0.00 | 0.00 | 41 | 1018.8 |
| 20260503183031 | 69 | 4 | 4.0 | 12.0 | 0.00 | 0.00 | 0.00 | 47 | 1019.1 |
| 20260503181603 | 68 | 263 | 3.0 | 8.0 | 0.00 | 0.00 | 0.00 | 45 | 1019.4 |
| 20260503180028 | 68 | 220 | 3.0 | 16.0 | 0.00 | 0.00 | 0.00 | 43 | 1019.5 |
| 20260503174502 | 67 | 123 | 3.0 | 8.0 | 0.00 | 0.00 | 0.00 | 44 | 1019.8 |
| 20260503173112 | 67 | 217 | 3.0 | 12.0 | 0.00 | 0.00 | 0.00 | 47 | 1019.9 |
| 20260503171545 | 65 | 170 | 2.0 | 11.0 | 0.00 | 0.00 | 0.00 | 50 | 1020.0 |